Midland Airpark, TX
on Wednesday, December 5, 2018

Wednesday
Previous Day Next Day
Daily Summary
 ActualAverage (KMAF)Record (KMAF)
Temperature
Mean Temperature - -  
Max Temperature 57 °F 57 °F 79 °F (1951)
Min Temperature 33 °F 32 °F 18 °F (2005)
Degree Days
Heating Degree Days 20    
Moisture
Dew Point 37 °F   
Average Humidity 74    
Maximum Humidity 88    
Minimum Humidity 54    
Precipitation
Precipitation 0.00 in - - ()
Wind
Wind Speed 8 mph   
Max Wind Speed 22 mph   
Max Gust Speed 28 mph   
Visibility 10 miles   
Events     
Averages and records for this station are not official NWS values.
Key: T is trace of precipitation, MM is missing value
Source: NWS Daily Summary
Seasonal Weather Averages





Time(CST)TemperatureDew PointHumidity Pressure Visibility Wind DirectionWind SpeedGust SpeedPrecipitationEvents Conditions
12:15 AM 37.9 °F 32.0 °F 79% 30.35 in 10.0 miles ENE 6.9 mph - N/A   Unknown
12:35 AM 37.2 °F 31.5 °F 80% 30.37 in 10.0 miles ENE 5.8 mph - N/A   Unknown
12:55 AM 36.7 °F 31.1 °F 80% 30.37 in 10.0 miles ENE 4.6 mph - N/A   Unknown
1:15 AM 36.1 °F 30.9 °F 81% 30.35 in 10.0 miles ENE 4.6 mph - N/A   Unknown
1:35 AM 36.0 °F 31.1 °F 82% 30.35 in 10.0 miles East 3.5 mph - N/A   Unknown
1:55 AM 35.6 °F 30.9 °F 83% 30.35 in 10.0 miles East 3.5 mph - N/A   Unknown
2:15 AM 35.2 °F 30.6 °F 83% 30.35 in 10.0 miles ENE 3.5 mph - N/A   Unknown
2:35 AM 34.5 °F 30.0 °F 84% 30.35 in 10.0 miles ENE 4.6 mph - N/A   Unknown
2:55 AM 33.8 °F 29.3 °F 84% 30.35 in 10.0 miles ENE 3.5 mph - N/A   Unknown
3:15 AM 33.4 °F 29.3 °F 85% 30.35 in 10.0 miles Calm Calm - N/A   Unknown
3:35 AM 33.8 °F 29.7 °F 85% 30.34 in 10.0 miles East 3.5 mph - N/A   Unknown
3:55 AM 34.5 °F 30.9 °F 87% 30.33 in 10.0 miles ESE 4.6 mph - N/A   Unknown
4:15 AM 35.4 °F 31.5 °F 85% 30.33 in 10.0 miles ESE 4.6 mph - N/A   Unknown
4:35 AM 35.2 °F 31.3 °F 85% 30.33 in 10.0 miles Calm Calm - N/A   Unknown
4:55 AM 33.8 °F 29.8 °F 85% 30.32 in 10.0 miles Calm Calm - N/A   Unknown
5:15 AM 34.7 °F 30.7 °F 85% 30.33 in 10.0 miles ESE 3.5 mph - N/A   Unknown
5:35 AM 35.1 °F 31.1 °F 85% 30.33 in 10.0 miles Calm Calm - N/A   Unknown
5:55 AM 34.9 °F 31.1 °F 86% 30.33 in 10.0 miles ESE 3.5 mph - N/A   Unknown
6:15 AM 35.1 °F 31.3 °F 86% 30.33 in 10.0 miles SE 3.5 mph - N/A   Unknown
6:35 AM 34.7 °F 31.1 °F 87% 30.33 in 10.0 miles SE 4.6 mph - N/A   Unknown
6:55 AM 35.1 °F 31.5 °F 87% 30.32 in 10.0 miles SSE 5.8 mph - N/A   Unknown
7:15 AM 34.9 °F 31.5 °F 87% 30.32 in 10.0 miles SSE 3.5 mph - N/A   Unknown
7:35 AM 34.7 °F 31.5 °F 88% 30.32 in 10.0 miles SE 5.8 mph - N/A   Unknown
7:55 AM 35.6 °F 32.0 °F 87% 30.32 in 10.0 miles SSE 5.8 mph - N/A   Unknown
8:15 AM 36.5 °F 32.2 °F 84% 30.32 in 10.0 miles SSE 4.6 mph - N/A   Unknown
8:35 AM 37.2 °F 32.7 °F 84% 30.33 in 10.0 miles SSE 8.1 mph - N/A   Unknown
8:55 AM 38.8 °F 33.3 °F 80% 30.33 in 10.0 miles SSE 8.1 mph - N/A   Unknown
9:15 AM 40.1 °F 33.6 °F 78% 30.33 in 10.0 miles South 10.4 mph - N/A   Unknown
9:35 AM 42.3 °F 34.5 °F 74% 30.33 in 10.0 miles South 8.1 mph - N/A   Unknown
9:55 AM 45.1 °F 35.4 °F 69% 30.33 in 10.0 miles South 11.5 mph 17.3 mph N/A   Unknown
10:15 AM 47.3 °F 35.8 °F 64% 30.33 in 10.0 miles South 15.0 mph - N/A   Unknown
10:35 AM 49.3 °F 36.3 °F 61% 30.33 in 10.0 miles South 15.0 mph - N/A   Unknown
10:55 AM 50.4 °F 36.0 °F 58% 30.32 in 10.0 miles South 11.5 mph 15.0 mph N/A   Unknown
11:15 AM 51.3 °F 36.5 °F 57% 30.31 in 10.0 miles South 13.8 mph 18.4 mph N/A   Unknown
11:35 AM 52.7 °F 37.2 °F 56% 30.30 in 10.0 miles South 15.0 mph - N/A   Unknown
11:55 AM 52.7 °F 37.4 °F 56% 30.29 in 10.0 miles South 15.0 mph - N/A   Unknown
12:15 PM 52.9 °F 38.1 °F 57% 30.27 in 10.0 miles South 9.2 mph - N/A   Unknown
12:35 PM 54.7 °F 38.7 °F 55% 30.25 in 10.0 miles South 11.5 mph - N/A   Unknown
12:55 PM 57.2 °F 41.0 °F 55% 30.24 in 10.0 miles SSE 18.4 mph 26.5 mph N/A   Unknown
1:15 PM 57.7 °F 41.4 °F 54% 30.21 in 10.0 miles South 19.6 mph 26.5 mph N/A   Unknown
1:35 PM 57.7 °F 41.2 °F 54% 30.20 in 10.0 miles South 17.3 mph 25.3 mph N/A   Unknown
1:55 PM 56.8 °F 41.5 °F 57% 30.19 in 10.0 miles South 19.6 mph 25.3 mph N/A   Unknown
2:15 PM 56.8 °F 42.3 °F 58% 30.17 in 10.0 miles South 19.6 mph 23.0 mph N/A   Unknown
2:35 PM 56.8 °F 42.4 °F 59% 30.16 in 10.0 miles South 21.9 mph 27.6 mph N/A   Unknown
2:55 PM 55.9 °F 42.1 °F 60% 30.15 in 10.0 miles South 17.3 mph 23.0 mph N/A   Unknown
3:15 PM 55.2 °F 42.1 °F 61% 30.14 in 10.0 miles SSE 17.3 mph 26.5 mph N/A   Unknown
3:35 PM 54.9 °F 42.3 °F 63% 30.14 in 10.0 miles South 18.4 mph 25.3 mph N/A   Unknown
3:55 PM 55.4 °F 42.3 °F 61% 30.14 in 10.0 miles South 17.3 mph 26.5 mph N/A   Unknown
4:15 PM 55.8 °F 42.8 °F 62% 30.13 in 10.0 miles SSE 13.8 mph 17.3 mph N/A   Unknown
4:35 PM 55.8 °F 43.0 °F 62% 30.13 in 10.0 miles SSE 20.7 mph 25.3 mph N/A   Unknown
4:55 PM 55.4 °F 42.8 °F 63% 30.14 in 10.0 miles SSE 16.1 mph 20.7 mph N/A   Unknown
5:15 PM 54.5 °F 42.8 °F 65% 30.14 in 10.0 miles SSE 13.8 mph 17.3 mph N/A   Unknown
5:35 PM 54.0 °F 42.8 °F 66% 30.13 in 10.0 miles South 18.4 mph 23.0 mph N/A   Unknown
5:55 PM 53.4 °F 42.8 °F 67% 30.13 in 10.0 miles South 10.4 mph 17.3 mph N/A   Unknown
6:15 PM 52.7 °F 42.4 °F 68% 30.13 in 10.0 miles South 13.8 mph - N/A   Unknown
6:35 PM 52.2 °F 42.8 °F 70% 30.13 in 10.0 miles SSE 15.0 mph 19.6 mph N/A   Unknown
6:55 PM 51.8 °F 42.8 °F 71% 30.13 in 10.0 miles SSE 11.5 mph - N/A   Unknown
7:15 PM 50.9 °F 42.8 °F 74% 30.12 in 10.0 miles SSE 11.5 mph - N/A   Unknown
7:35 PM 50.5 °F 42.8 °F 75% 30.13 in 10.0 miles South 13.8 mph - N/A   Unknown
7:55 PM 50.2 °F 42.8 °F 76% 30.12 in 10.0 miles South 17.3 mph 23.0 mph N/A   Unknown
8:15 PM 49.6 °F 42.8 °F 77% 30.12 in 10.0 miles SSE 11.5 mph - N/A   Unknown
8:35 PM 49.1 °F 42.3 °F 77% 30.12 in 10.0 miles South 12.7 mph 17.3 mph N/A   Unknown
8:55 PM 48.4 °F 42.1 °F 79% 30.12 in 10.0 miles South 16.1 mph 20.7 mph N/A   Unknown
9:15 PM 48.2 °F 42.3 °F 80% 30.12 in 10.0 miles South 18.4 mph 23.0 mph N/A   Unknown
9:35 PM 47.8 °F 42.3 °F 81% 30.12 in 10.0 miles South 12.7 mph - N/A   Unknown
9:55 PM 47.5 °F 42.1 °F 82% 30.12 in 10.0 miles South 11.5 mph - N/A   Unknown
10:15 PM 47.3 °F 42.1 °F 82% 30.12 in 10.0 miles South 13.8 mph 21.9 mph N/A   Unknown
10:35 PM 47.3 °F 41.9 °F 82% 30.12 in 10.0 miles South 16.1 mph - N/A   Unknown
10:55 PM 46.9 °F 41.9 °F 83% 30.12 in 10.0 miles South 15.0 mph - N/A   Unknown
11:15 PM 46.8 °F 41.9 °F 83% 30.10 in 10.0 miles South 13.8 mph - N/A   Unknown
11:35 PM 46.6 °F 41.9 °F 84% 30.12 in 10.0 miles South 13.8 mph 17.3 mph N/A   Unknown
11:55 PM 46.6 °F 41.9 °F 84% 30.12 in 10.0 miles South 11.5 mph - N/A   Unknown
 Powered By Weather Underground